Abilene Dyess, TX

1:18 AM CDT on April 27, 2017 (GMT -0500)
Dyess Air Force Base

Weather History for KDYS - January, 2013

Change the Weather History Date:

Tuesday, January 22, 2013

  Actual Average Record
Temperature  
Mean Temperature 47 °F -  
Max Temperature 66 °F 57 °F 82 °F (2009)
Min Temperature 28 °F 35 °F 23 °F (2011)
Degree Days  
Heating Degree Days 18    
Moisture  
Dew Point 36 °F    
Average Humidity 64    
Maximum Humidity 86    
Minimum Humidity 41    
Precipitation  
Precipitation 0.00 in - - ()
Sea Level Pressure  
Sea Level Pressure 30.21 in    
Wind  
Wind Speed 6 mph (SSW)    
Max Wind Speed 18 mph    
Max Gust Speed 24 mph    
Visibility 10 miles    
Events      
Averages and records for this station are not official NWS values.
T = Trace of Precipitation, MM = Missing Value Source: NWS Daily Summary

Daily Weather History Graph

Daily Weather History Graph

Search for Another Location

Airport or City:

Trip Planner

Search our weather history database for the weather conditions in past years. The results will help you decide how hot, cold, wet, or windy it might be!

Date:

Astronomy

Jan. 22, 2013 Rise Set
Actual Time 7:38 AM CST 6:03 PM CST
Civil Twilight 7:12 AM CST 6:29 PM CST
Nautical Twilight 6:42 AM CST 6:59 PM CST
Astronomical Twilight 6:13 AM CST 7:28 PM CST
Moon 2:30 PM CST (1/22) 3:59 AM CST (1/22)
Length of Visible Light 11h 17m
Length of Day
10h 24m
Waxing Gibbous, 83% of the Moon is Illuminated
Jan 22
Waxing Gibbous
Jan 26
Full
Feb 3
Last Quarter
Feb 10
New
Feb 17
First Quarter

Hourly Weather History & Observations

Time (CST) Temp. Windchill Dew Point Humidity Pressure Visibility Wind Dir Wind Speed Gust Speed Precip Events Conditions
12:55 AM 37.6 °F - 24.6 °F 60% 30.27 in 10.0 mi Calm Calm - N/A   Overcast
1:55 AM 31.5 °F 26.8 °F 23.7 °F 73% 30.27 in 10.0 mi WSW 4.6 mph - N/A   Clear
2:55 AM 30.4 °F 25.6 °F 23.5 °F 76% 30.26 in 10.0 mi WNW 4.6 mph - N/A   Clear
3:55 AM 28.6 °F - 22.6 °F 78% 30.26 in 10.0 mi Calm Calm - N/A   Clear
4:55 AM 31.5 °F 28.1 °F 24.1 °F 74% 30.26 in 10.0 mi West 3.5 mph - N/A   Mostly Cloudy
5:55 AM 30.6 °F - 24.8 °F 79% 30.26 in 10.0 mi Calm Calm - N/A   Scattered Clouds
6:55 AM 31.3 °F 27.9 °F 25.0 °F 77% 30.28 in 10.0 mi South 3.5 mph - N/A   Mostly Cloudy
7:55 AM 33.3 °F 30.2 °F 26.2 °F 75% 30.29 in 10.0 mi South 3.5 mph - N/A   Mostly Cloudy
8:55 AM 37.9 °F - 27.0 °F 65% 30.28 in 10.0 mi Calm Calm - N/A   Mostly Cloudy
9:55 AM 49.1 °F - 29.1 °F 46% 30.27 in 10.0 mi SSE 12.7 mph - N/A   Scattered Clouds
10:55 AM 55.2 °F - 34.3 °F 45% 30.26 in 10.0 mi South 8.1 mph - N/A   Clear
11:55 AM 59.5 °F - 38.7 °F 46% 30.23 in 10.0 mi South 13.8 mph - N/A   Clear
12:55 PM 63.9 °F - 41.9 °F 45% 30.18 in 10.0 mi SSW 17.3 mph - N/A   Clear
1:55 PM 65.7 °F - 42.8 °F 43% 30.15 in 10.0 mi SSW 18.4 mph 24.2 mph N/A   Clear
2:55 PM 65.5 °F - 43.9 °F 46% 30.14 in 10.0 mi SSW 15.0 mph 21.9 mph N/A   Clear
3:55 PM 66.2 °F - 42.3 °F 42% 30.14 in 10.0 mi SSW 15.0 mph - N/A   Clear
4:55 PM 66.4 °F - 42.1 °F 41% 30.13 in 10.0 mi SSW 11.5 mph - N/A   Clear
5:55 PM 59.9 °F - 42.3 °F 52% 30.13 in 10.0 mi South 8.1 mph - N/A   Clear
6:55 PM 49.8 °F - 39.6 °F 68% 30.15 in 10.0 mi SSE 6.9 mph - N/A   Clear
7:55 PM 47.7 °F - 42.1 °F 81% 30.17 in 10.0 mi South 9.2 mph - N/A   Clear
8:55 PM 55.4 °F - 48.2 °F 77% 30.17 in 10.0 mi South 10.4 mph - N/A   Clear
9:55 PM 52.9 °F - 47.7 °F 82% 30.17 in 10.0 mi South 9.2 mph - N/A   Clear
10:55 PM 53.4 °F - 48.4 °F 83% 30.17 in 10.0 mi South 8.1 mph - N/A   Clear
11:55 PM 52.7 °F - 48.6 °F 86% 30.17 in 10.0 mi South 6.9 mph - N/A   Clear